Weather History for Thomson, GA

Change the Weather History Date:

Thursday, April 4, 2013

  Actual Average (KDBN) Record (KDBN)
Temperature  
Mean Temperature 45 °F -  
Max Temperature 51 °F 76 °F 90 °F (1986)
Min Temperature 39 °F 46 °F 23 °F (2007)
Degree Days  
Heating Degree Days 20    
Moisture  
Dew Point 43 °F    
Average Humidity 97    
Maximum Humidity 100    
Minimum Humidity 69    
Precipitation  
Precipitation 0.00 in - - ()
Sea Level Pressure  
Sea Level Pressure 30.11 in    
Wind  
Wind Speed 9 mph (NE)    
Max Wind Speed 17 mph    
Max Gust Speed 26 mph    
Visibility 6 miles    
Events      
Averages and records for this station are not official NWS values.
T = Trace of Precipitation, MM = Missing Value Source: NWS Daily Summary

Daily Weather History Graph

Daily Weather History Graph

Search for Another Location

Airport:

Trip Planner

Search our weather history database for the weather conditions in past years. The results will help you decide how hot, cold, wet, or windy it might be!

Date:

Astronomy

Apr. 04, 2013 Rise Set
Actual Time 7:13 AM EDT 7:52 PM EDT
Civil Twilight 6:48 AM EDT 8:18 PM EDT
Nautical Twilight 6:18 AM EDT 8:47 PM EDT
Astronomical Twilight 5:48 AM EDT 9:18 PM EDT
Moon 3:22 AM EDT (4/4) 2:25 PM EDT (4/4)
Length of Visible Light 13h 29m
Length of Day
12h 39m
Waning Crescent, 34% of the Moon is Illuminated
Apr 4
Waning Crescent
Apr 10
New
Apr 18
First Quarter
Apr 25
Full
May 2
Last Quarter

Hourly Weather History & Observations

Time (EDT) Temp. Windchill Dew Point Humidity Pressure Visibility Wind Dir Wind Speed Gust Speed Precip Events Conditions
12:15 AM 51.1 °F - 42.6 °F 73% 30.22 in 10.0 mi East 10.4 mph - N/A   Overcast
12:35 AM 51.3 °F - 42.1 °F 71% 30.21 in 10.0 mi ENE 10.4 mph - N/A   Overcast
12:55 AM 51.4 °F - 41.7 °F 69% 30.21 in 10.0 mi East 10.4 mph - N/A   Overcast
1:15 AM 50.9 °F - 42.1 °F 72% 30.21 in 10.0 mi ENE 6.9 mph - N/A   Overcast
1:35 AM 50.0 °F - 42.8 °F 76% 30.21 in 10.0 mi ENE 6.9 mph - N/A   Overcast
1:55 AM 49.6 °F - 43.5 °F 79% 30.23 in 10.0 mi ESE 3.5 mph - N/A   Overcast
2:15 AM 49.1 °F - 44.4 °F 84% 30.23 in 10.0 mi Calm Calm - N/A   Overcast
2:35 AM 48.2 °F - 45.1 °F 89% 30.21 in 10.0 mi East 6.9 mph - N/A   Overcast
2:55 AM 47.7 °F - 44.6 °F 89% 30.20 in 10.0 mi East 6.9 mph - N/A   Overcast
3:15 AM 47.3 °F - 45.1 °F 92% 30.19 in 10.0 mi East 6.9 mph - N/A   Overcast
3:35 AM 46.9 °F - 45.1 °F 93% 30.19 in 10.0 mi East 6.9 mph - N/A   Overcast
3:55 AM 46.9 °F - 45.0 °F 93% 30.19 in 10.0 mi East 5.8 mph - N/A   Overcast
4:15 AM 46.4 °F 40.7 °F 45.1 °F 95% 30.18 in 7.0 mi East 12.7 mph 18.4 mph N/A   Overcast
4:35 AM 45.7 °F 41.0 °F 45.5 °F 99% 30.18 in 7.0 mi ENE 9.2 mph 17.3 mph N/A   Overcast
4:55 AM 45.5 °F 41.3 °F 45.5 °F 100% 30.19 in 7.0 mi ENE 8.1 mph - N/A   Overcast
5:15 AM 45.5 °F 41.3 °F 45.5 °F 100% 30.17 in 7.0 mi ENE 8.1 mph - N/A   Overcast
5:35 AM 45.1 °F 40.8 °F 45.1 °F 100% 30.17 in 5.0 mi ENE 8.1 mph - N/A   Overcast
5:55 AM 45.0 °F 41.2 °F 45.0 °F 100% 30.17 in 5.0 mi NE 6.9 mph - N/A   Overcast
6:15 AM 45.0 °F 41.8 °F 45.0 °F 100% 30.18 in 7.0 mi NE 5.8 mph - N/A   Overcast
6:35 AM 44.8 °F 41.0 °F 44.8 °F 100% 30.18 in 5.0 mi ENE 6.9 mph - N/A   Overcast
6:55 AM 44.8 °F 40.4 °F 44.8 °F 100% 30.18 in 5.0 mi ENE 8.1 mph - N/A   Overcast
7:15 AM 44.8 °F 40.4 °F 44.8 °F 100% 30.18 in 7.0 mi ENE 8.1 mph - N/A   Overcast
7:35 AM 44.6 °F 39.7 °F 44.6 °F 100% 30.17 in 5.0 mi ENE 9.2 mph - N/A   Overcast
7:55 AM 44.8 °F 39.9 °F 44.8 °F 100% 30.17 in 5.0 mi NE 9.2 mph - N/A   Overcast
8:15 AM 44.8 °F 39.9 °F 44.8 °F 100% 30.16 in 3.0 mi ENE 9.2 mph - N/A   Overcast
8:35 AM 45.0 °F 38.9 °F 45.0 °F 100% 30.16 in 7.0 mi ENE 12.7 mph 18.4 mph N/A   Overcast
8:55 AM 44.8 °F 39.4 °F 44.4 °F 99% 30.17 in 4.0 mi ENE 10.4 mph 17.3 mph N/A   Overcast
9:15 AM 44.2 °F 37.0 °F 44.2 °F 100% 30.16 in 4.0 mi East 16.1 mph 19.6 mph N/A   Overcast
9:35 AM 43.9 °F 36.8 °F 43.7 °F 99% 30.15 in 3.0 mi East 15.0 mph 25.3 mph N/A   Overcast
9:55 AM 43.7 °F 36.6 °F 43.2 °F 98% 30.15 in 5.0 mi ENE 15.0 mph 26.5 mph N/A   Overcast
10:15 AM 43.3 °F 35.5 °F 43.3 °F 100% 30.14 in 4.0 mi ENE 17.3 mph 25.3 mph N/A   Overcast
10:35 AM 43.0 °F 36.8 °F 43.0 °F 100% 30.16 in 1.5 mi ENE 11.5 mph 18.4 mph N/A   Overcast
10:55 AM 42.8 °F 35.4 °F 42.8 °F 100% 30.15 in 1.8 mi ENE 15.0 mph 21.9 mph N/A   Overcast
11:15 AM 42.4 °F 35.3 °F 42.4 °F 100% 30.15 in 1.8 mi NE 13.8 mph 23.0 mph N/A   Overcast
11:35 AM 42.4 °F 36.1 °F 42.4 °F 100% 30.13 in 3.0 mi ENE 11.5 mph 19.6 mph N/A   Overcast
11:55 AM 42.4 °F 38.1 °F 42.4 °F 100% 30.13 in 3.0 mi ENE 6.9 mph 17.3 mph N/A   Overcast
12:35 PM 43.0 °F 37.7 °F 43.0 °F 100% 30.13 in 7.0 mi NE 9.2 mph - N/A   Overcast
12:55 PM 43.2 °F 39.0 °F 43.2 °F 100% 30.12 in 1.5 mi NE 6.9 mph - N/A   Overcast
1:15 PM 43.3 °F 37.2 °F 43.3 °F 100% 30.11 in 1.5 mi NNE 11.5 mph 17.3 mph N/A   Overcast
1:55 PM 42.8 °F 37.0 °F 42.8 °F 100% 30.08 in 5.0 mi NE 10.4 mph 17.3 mph N/A   Overcast
2:15 PM 42.8 °F 37.0 °F 42.8 °F 100% 30.08 in 2.5 mi NE 10.4 mph 17.3 mph N/A   Overcast
2:35 PM 42.8 °F 37.5 °F 42.8 °F 100% 30.08 in 2.5 mi North 9.2 mph - N/A   Overcast
2:55 PM 42.6 °F 37.8 °F 42.6 °F 100% 30.07 in 1.8 mi North 8.1 mph - N/A   Overcast
3:15 PM 42.8 °F 37.0 °F 42.8 °F 100% 30.06 in 2.5 mi NNE 10.4 mph - N/A   Overcast
3:35 PM 42.6 °F 36.3 °F 42.6 °F 100% 30.06 in 4.0 mi North 11.5 mph 17.3 mph N/A   Overcast
3:55 PM 42.3 °F 36.3 °F 42.3 °F 100% 30.04 in 4.0 mi North 10.4 mph - N/A   Overcast
4:15 PM 42.3 °F 36.3 °F 42.3 °F 100% 30.03 in 4.0 mi NNE 10.4 mph - N/A   Overcast
4:35 PM 42.1 °F 37.1 °F 42.1 °F 100% 30.04 in 4.0 mi NNE 8.1 mph - N/A   Overcast
4:55 PM 42.3 °F 36.8 °F 42.3 °F 100% 30.03 in 4.0 mi North 9.2 mph - N/A   Overcast
5:15 PM 42.4 °F 38.1 °F 42.4 °F 100% 30.02 in 4.0 mi NNE 6.9 mph - N/A   Overcast
5:35 PM 42.3 °F 37.3 °F 42.3 °F 100% 30.03 in 3.0 mi NNE 8.1 mph - N/A   Overcast
5:55 PM 42.3 °F 37.3 °F 42.3 °F 100% 30.03 in 3.0 mi North 8.1 mph - N/A   Overcast
6:15 PM 42.1 °F 36.1 °F 42.1 °F 100% 30.03 in 4.0 mi North 10.4 mph - N/A   Overcast
6:35 PM 42.1 °F 37.1 °F 42.1 °F 100% 30.03 in 5.0 mi NNE 8.1 mph - N/A   Overcast
6:55 PM 41.9 °F 36.3 °F 41.9 °F 100% 30.01 in 3.0 mi NNE 9.2 mph - N/A   Overcast
7:15 PM 41.9 °F 36.3 °F 41.9 °F 100% 30.01 in 3.0 mi NNE 9.2 mph - N/A   Overcast
7:35 PM 41.9 °F 36.9 °F 41.9 °F 100% 30.01 in 4.0 mi NNE 8.1 mph - N/A   Overcast
7:55 PM 41.9 °F 36.9 °F 41.9 °F 100% 30.01 in 7.0 mi NNE 8.1 mph 16.1 mph N/A   Overcast
8:15 PM 41.9 °F 37.5 °F 41.9 °F 100% 30.01 in 10.0 mi North 6.9 mph - N/A   Overcast
8:55 PM 41.5 °F 37.1 °F 41.5 °F 100% 30.01 in 5.0 mi NNE 6.9 mph - N/A   Overcast
9:15 PM 41.5 °F 38.6 °F 41.5 °F 100% 30.01 in 5.0 mi North 4.6 mph - N/A   Overcast
9:35 PM 41.4 °F 36.8 °F 41.4 °F 100% 30.02 in 4.0 mi North 6.9 mph - N/A   Overcast
9:55 PM 41.0 °F 36.4 °F 41.0 °F 100% 30.01 in 4.0 mi North 6.9 mph - N/A   Overcast
10:15 PM 41.0 °F 38.0 °F 41.0 °F 100% 30.03 in 7.0 mi NNE 4.6 mph - N/A   Overcast
10:35 PM 40.8 °F 36.9 °F 40.8 °F 100% 30.02 in 7.0 mi North 5.8 mph - N/A   Overcast
10:55 PM 40.5 °F 36.5 °F 40.5 °F 100% 30.03 in 10.0 mi North 5.8 mph - N/A   Overcast
11:15 PM 40.3 °F 35.5 °F 40.3 °F 100% 30.03 in 7.0 mi North 6.9 mph - N/A   Overcast
11:35 PM 39.6 °F 34.0 °F 39.6 °F 100% 30.04 in 5.0 mi North 8.1 mph - N/A   Overcast
11:55 PM 39.4 °F 35.2 °F 39.4 °F 100% 30.04 in 7.0 mi North 5.8 mph - N/A   Overcast